METEOR 2-2 DEB

Satellite information

Favourite Embed

Satellite Type and Status

DEBRISIN ORBIT

Key statistics

Satellite METEOR 2-2 DEB at a glance.

Uptime

17653

Days in orbit

Revolutions

≈ 14.4

Per day

Orbit

LEO

Low Earth Orbit

Inclination

81.2

Latest

Satellite identification and parameters

Extended collection of information and parameters for METEOR 2-2 DEB.

Object identification

Identified? True

Debris? True

Object name: METEOR 2-2 DEB

International designator: 1977-002F

Object number (NORAD): 35423

Object ID (CCSDS): 35423

Country: COMMONWEALTH OF INDEPENDENT STATES (CIS)

Current information (Y/N): Y

RCS size: SMALL

Orbital parameters

Period: 100.159 minutes

Inclination: 81.2456 deg

SMA: 7144.219 km

Apoapsis: 775.014 km

Periapsis: 757.153 km

RAAN: 19.1587 deg

Eccentricy: 0.00125

Argument of periapsis: 80.9843 deg

Mean anomaly: 279.2757 deg

Mean motion: 14.37707897 rev/day

Mean motion (dot): 0.00006559 rev/day2

B* drag term: 0.0021751 1/REarth

Two-line elements (TLE)

Creation date: May 7, 2025, 3:14 a.m.

Reference frame: TEME

Reference center: EARTH

Epoch: May 6, 2025, 12:45 a.m. UTC

TLE line 0: 0 METEOR 2-2 DEB

TLE line 1: 1 35423U 77002F 25126.03139160 .00006559 00000-0 21751-2 0 9995

TLE line 2: 2 35423 81.2456 19.1587 0012500 80.9843 279.2757 14.37707897611455

Live tracking on map

Real-time ground track for satellite METEOR 2-2 DEB.

In-orbit conjunctions

A list of the most updated potential collisions computed for object METEOR 2-2 DEB.

Target Orbit TCA Probability of collision Miss distance Type
CZ-6A DEB LEO 2025-02-17 17:00:30 0.0001369618 244.0 (m) DEBRIS

Associated space launch

Second generation soviet meteorological satellite

METEOR 2-2 DEB was lifted into orbit during the mission ‘Vostok 8A92M | Meteor-2 2’, on board a Vostok 8A92M space rocket.

The launch took place on Jan. 6, 1977, 11:17 p.m. from 43/3 (43L).

For more information about the launch, click the button.

Launch to space Vostok 8A92M | Meteor-2 2
Vostok 8A92M | Meteor-2 2

Agency: N/A

Status: Launch Successful

Launch date: Jan. 6, 1977, 11:17 p.m. UTC

Rocket: Vostok 8A92M

Launch pad: 43/3 (43L)

Location: Plesetsk Cosmodrome, Russian Federation

...

Latest news about this satellite

There are no fresh news available about this satellite. Check back as we update our databases every day.


Newsletter sign-up

Weekly statistics, charts and insights to help you stay on top of the space industry.